Regional Weather Roundup
Issued by NWS

Home | Current Version | Previous Version | Graphics & Text | Print | Product List | Glossary On
Versions: 1 2 3 4 5 6 7 8 9 10 11 12 13 14 15 16 17 18 19 20 21 22 23 24 25 26 27 28 29 30 31 32 33 34 35 36 37 38 39 40 41 42 43 44 45 46 47 48 49 50
000
ASUS43 KDTX 240110
RWRMI
MICHIGAN HOURLY REGIONAL WEATHER ROUNDUP
NATIONAL WEATHER SERVICE DETROIT/PONTIAC MI
900 PM EDT WED APR 23 2014

NOTE: "FAIR" INDICATES FEW OR NO CLOUDS BELOW 12,000 FEET WITH NO
SIGNIFICANT WEATHER AND/OR OBSTRUCTION TO VISIBILITY.

MIZ047>049-052>055-059>063-066>070-074>076-081>083-240200-
SOUTHEAST LOWER MICHIGAN

CITY           SKY/WX    TMP DP  RH WIND       PRES   REMARKS
ADRIAN         MOCLDY    49  22  34 NE6       30.10R
ALMA           MOCLDY    48  24  38 CALM      30.09R
ANN ARBOR      PTCLDY    47  11  23 NE6       30.10R
BAD AXE        CLEAR     37  16  41 CALM      30.12R
CARO           PTCLDY    46  20  35 NE6       30.10R
DETROIT CITY   PTCLDY    47  19  33 E7        30.11R
DETROIT        MOCLDY    49  30  48 SE3       30.12R
FLINT          MOCLDY    48  20  32 S5        30.10R
GROSSE ILE     CLEAR     46  37  71 E3        30.10R
HILLSDALE      MOCLDY    51  19  28 CALM      30.09R
HOWELL         MOCLDY    46  16  30 SE3       30.09S

CITY           SKY/WX    TMP DP  RH WIND       PRES   REMARKS
JACKSON        MOCLDY    49  20  31 N3        30.09R
LAMBERTVILLE   PTCLDY    48  32  53 CALM      30.10R
LANSING        MOCLDY    50  19  29 CALM      30.09S
LAPEER         FAIR      44  27  52 MISG      30.10S
MASON          MOCLDY    48  24  39 CALM      30.09S
MONROE         PTCLDY    46  36  66 E5        30.09R
MT. CLEMENS    PTCLDY    41  25  52 E9        30.10R
PONTIAC        MOCLDY    47  16  29 CALM      30.09S
PORT HOPE        N/A     36  17  46 CALM      30.11R
PORT HURON     CLEAR     36  21  55 NE3       30.13R
TRI CITIES     PTCLDY    44  32  62 NE9       30.10R
TROY           PTCLDY    49  14  24 CALM      30.11R
SAGINAW HB     PTCLDY    45  30  57 NE5       30.09S
YPSILANTI      PTCLDY    49  17  28 N5        30.11R
$$
MIZ043>046-050>051-056>058-064>065-071>073-077>080-240200-
SOUTHWEST LOWER MICHIGAN

CITY           SKY/WX    TMP DP  RH WIND       PRES   REMARKS
BATTLE CREEK   MOCLDY    50  30  46 NW7       30.09S
BENTON HARBOR  CLOUDY    38  25  59 VRB5      30.12R WCI  34
BIG RAPIDS     CLOUDY    48  15  26 N5        30.09R
COLDWATER      MOCLDY    50  21  31 CALM      30.09R
FREMONT        FAIR      45  23  42 W3        30.10S
HOLLAND        CLOUDY    45  23  42 NW5       30.12R
GRAND RAPIDS   CLOUDY    48  28  46 NW6       30.10S
IONIA          FAIR      50  28  43 W7        30.09R
KALAMAZOO      CLOUDY    49  29  46 N8        30.10R
LUDINGTON      CLOUDY    39  20  45 CALM      30.12S
MARSHALL       MOCLDY    48  23  37 CALM      30.09R
MOUNT PLEASANT MOCLDY    50  19  29 N3        30.08R
MUSKEGON       CLOUDY    43  26  51 NW3       30.11F
SOUTH HAVEN    CLOUDY    39  23  52 N3        30.12R
$$
MIZ016>042-240200-
NORTHERN LOWER MICHIGAN

CITY           SKY/WX    TMP DP  RH WIND       PRES   REMARKS
ALPENA         PTCLDY    42  17  36 NW5       30.11R
BEAVER ISLAND  MOCLDY    34  22  61 W3        30.15R
BELLAIRE       MOCLDY    42  20  41 CALM      30.13S
CADILLAC       MOCLDY    40  18  40 N3        30.10R
CHARLEVOIX     MOCLDY    35  20  53 W8        30.17S WCI  29
FRANKFORT      CLOUDY    39  19  44 CALM      30.13S
GAYLORD        PTCLDY    41  15  35 N3        30.10S
GRAYLING       PTCLDY    40  17  39 CALM      30.11S
HARBOR SPRINGS MOCLDY    31  25  78 CALM      30.13S
HOUGHTON LAKE  MOCLDY    44  20  38 N5        30.09S
MANISTEE       CLOUDY    37  25  60 W3        30.12S
OSCODA         CLEAR     39  17  40 CALM      30.11S
PELLSTON       PTCLDY    41  20  43 NW3       30.13S
ROGERS CITY    PTCLDY    40  20  44 NW5       30.13R
TRAVERSE CITY  CLOUDY    40  18  41 CALM      30.12S
$$
MIZ007>008-015-240200-
EASTERN UPPER MICHIGAN

CITY           SKY/WX    TMP DP  RH WIND       PRES   REMARKS
KINROSS        PTCLDY    36  27  69 NW8       30.12R WCI  29
MACKINAC ISLAN MOCLDY    35  24  64 W8        30.12S WCI  28
NEWBERRY       PTCLDY    39  22  48 CALM      30.12F
S. S. MARIE    CLEAR     37  25  61 W7        30.11S WCI  32
MUNISING         N/A     35  25  66 CALM      30.13S
$$
MIZ004>006-011>014-085-240200-
CENTRAL UPPER MICHIGAN

CITY           SKY/WX    TMP DP  RH WIND       PRES   REMARKS
MANISTIQUE     MOCLDY    36  27  72 SW3       30.13S
ESCANABA       CLOUDY    37  19  48 S3        30.11F
MENOMINEE      CLOUDY    43  10  26 S6        30.11F
SAWYER-GWINN   CLEAR     41  19  42 NE7       30.09F
$$
MIZ001>003-009>011-084-240200-
WESTERN UPPER MICHIGAN

CITY           SKY/WX    TMP DP  RH WIND       PRES   REMARKS
IRON MOUNTAIN  CLOUDY    47  12  24 SE9       30.08R
HOUGHTON       CLOUDY    36  20  52 E10       30.08F WCI  28
COPPER HARBOR    N/A     38  22  52 VRB6      30.10F WCI  33
IRONWOOD       CLOUDY    52  21  30 E6        29.97F
$$

ABBREVIATIONS USED IN REMARKS
   TC - TEMPERATURE IN CELSIUS
  WCI - WIND CHILL INDEX
   HX - HEAT INDEX
  VSB - VISIBILITY




USA.gov is the U.S. government's official web portal to all federal, state and local government web resources and services.